Time,TemperatureF,DewpointF,PressureIn,WindDirection,WindDirectionDegrees,WindSpeedMPH,WindSpeedGustMPH,Humidity,HourlyPrecipIn,Conditions,Clouds,dailyrainin,SoftwareType,DateUTC
2013-03-27 00:08:00,34.2,26.0,30.32,NW,304,0.0,1.0,72,0.00,,,0.00,weatherlink.com 1.10,2013-03-27 04:08:00,
2013-03-27 00:23:00,34.2,26.0,30.32,West,280,0.0,3.0,72,0.00,,,0.00,weatherlink.com 1.10,2013-03-27 04:23:00,
2013-03-27 00:38:00,34.1,26.0,30.32,NW,305,2.0,2.0,72,0.00,,,0.00,weatherlink.com 1.10,2013-03-27 04:38:00,
2013-03-27 00:53:00,34.0,26.0,30.32,NW,305,0.0,1.0,73,0.00,,,0.00,weatherlink.com 1.10,2013-03-27 04:53:00,
2013-03-27 01:08:00,33.7,26.0,30.32,WNW,293,0.0,3.0,73,0.00,,,0.00,weatherlink.com 1.10,2013-03-27 05:08:00,
2013-03-27 01:23:00,33.5,26.0,30.31,WNW,293,1.0,2.0,75,0.00,,,0.00,weatherlink.com 1.10,2013-03-27 05:23:00,
2013-03-27 01:39:00,33.1,26.0,30.31,WNW,290,0.0,3.0,75,0.00,,,0.00,weatherlink.com 1.10,2013-03-27 05:39:00,
2013-03-27 01:54:00,32.3,26.0,30.31,WNW,290,0.0,1.0,76,0.00,,,0.00,weatherlink.com 1.10,2013-03-27 05:54:00,
2013-03-27 02:09:00,31.7,25.0,30.31,WNW,290,0.0,0.0,77,0.00,,,0.00,weatherlink.com 1.10,2013-03-27 06:09:00,
2013-03-27 02:24:00,30.5,25.0,30.31,WNW,290,0.0,0.0,80,0.00,,,0.00,weatherlink.com 1.10,2013-03-27 06:24:00,
2013-03-27 02:39:00,29.2,25.0,30.31,WNW,290,0.0,0.0,83,0.00,,,0.00,weatherlink.com 1.10,2013-03-27 06:39:00,
2013-03-27 02:54:00,28.4,24.0,30.31,WNW,290,0.0,0.0,84,0.00,,,0.00,weatherlink.com 1.10,2013-03-27 06:54:00,
2013-03-27 03:09:00,27.9,24.0,30.31,WNW,290,0.0,0.0,86,0.00,,,0.00,weatherlink.com 1.10,2013-03-27 07:09:00,
2013-03-27 03:24:00,27.5,24.0,30.31,WNW,290,0.0,0.0,87,0.00,,,0.00,weatherlink.com 1.10,2013-03-27 07:24:00,
2013-03-27 03:39:00,26.9,24.0,30.31,WNW,290,0.0,0.0,87,0.00,,,0.00,weatherlink.com 1.10,2013-03-27 07:39:00,
2013-03-27 03:54:00,26.6,24.0,30.31,WNW,290,0.0,0.0,88,0.00,,,0.00,weatherlink.com 1.10,2013-03-27 07:54:00,
2013-03-27 04:09:00,26.3,24.0,30.32,WNW,290,0.0,0.0,89,0.00,,,0.00,weatherlink.com 1.10,2013-03-27 08:09:00,
2013-03-27 04:24:00,26.3,24.0,30.31,WNW,290,0.0,0.0,90,0.00,,,0.00,weatherlink.com 1.10,2013-03-27 08:24:00,
2013-03-27 04:39:00,26.4,24.0,30.32,WNW,290,0.0,0.0,90,0.00,,,0.00,weatherlink.com 1.10,2013-03-27 08:39:00,
2013-03-27 04:54:00,26.8,25.0,30.32,WNW,290,0.0,0.0,91,0.00,,,0.00,weatherlink.com 1.10,2013-03-27 08:54:00,
2013-03-27 05:09:00,27.1,25.0,30.32,WNW,290,0.0,0.0,91,0.00,,,0.00,weatherlink.com 1.10,2013-03-27 09:09:00,
2013-03-27 05:24:00,27.3,25.0,30.31,WNW,290,0.0,0.0,91,0.00,,,0.00,weatherlink.com 1.10,2013-03-27 09:24:00,
2013-03-27 05:39:00,27.5,25.0,30.31,WNW,290,0.0,0.0,90,0.00,,,0.00,weatherlink.com 1.10,2013-03-27 09:39:00,
2013-03-27 05:54:00,27.7,25.0,30.31,WNW,290,0.0,0.0,90,0.00,,,0.00,weatherlink.com 1.10,2013-03-27 09:54:00,
2013-03-27 06:09:00,27.5,25.0,30.31,WNW,290,0.0,0.0,90,0.00,,,0.00,weatherlink.com 1.10,2013-03-27 10:09:00,
2013-03-27 06:24:00,27.2,24.0,30.31,WNW,290,0.0,0.0,89,0.00,,,0.00,weatherlink.com 1.10,2013-03-27 10:24:00,
2013-03-27 06:39:00,26.6,24.0,30.32,WNW,290,0.0,0.0,89,0.00,,,0.00,weatherlink.com 1.10,2013-03-27 10:39:00,
2013-03-27 06:54:00,26.0,24.0,30.32,WNW,290,0.0,0.0,90,0.00,,,0.00,weatherlink.com 1.10,2013-03-27 10:54:00,
2013-03-27 07:09:00,25.3,23.0,30.33,WNW,290,0.0,0.0,90,0.00,,,0.00,weatherlink.com 1.10,2013-03-27 11:09:00,
2013-03-27 07:24:00,24.7,23.0,30.32,WNW,290,0.0,0.0,91,0.00,,,0.00,weatherlink.com 1.10,2013-03-27 11:24:00,
2013-03-27 07:39:00,24.2,22.0,30.33,WNW,290,0.0,0.0,91,0.00,,,0.00,weatherlink.com 1.10,2013-03-27 11:39:00,
2013-03-27 07:54:00,23.9,22.0,30.33,WNW,290,0.0,0.0,92,0.00,,,0.00,weatherlink.com 1.10,2013-03-27 11:54:00,
2013-03-27 08:09:00,23.7,22.0,30.34,WNW,290,0.0,0.0,92,0.00,,,0.00,weatherlink.com 1.10,2013-03-27 12:09:00,
2013-03-27 08:24:00,23.7,22.0,30.34,WNW,290,0.0,0.0,93,0.00,,,0.00,weatherlink.com 1.10,2013-03-27 12:24:00,
2013-03-27 08:39:00,24.4,23.0,30.35,WNW,290,0.0,0.0,93,0.00,,,0.00,weatherlink.com 1.10,2013-03-27 12:39:00,
2013-03-27 08:54:00,25.6,24.0,30.36,WNW,290,0.0,0.0,94,0.00,,,0.00,weatherlink.com 1.10,2013-03-27 12:54:00,
2013-03-27 09:09:00,27.4,26.0,30.36,WNW,290,0.0,0.0,95,0.00,,,0.00,weatherlink.com 1.10,2013-03-27 13:09:00,
2013-03-27 09:24:00,30.6,28.0,30.36,WNW,287,0.0,3.0,89,0.00,,,0.00,weatherlink.com 1.10,2013-03-27 13:24:00,
2013-03-27 09:39:00,32.8,28.0,30.36,WSW,237,4.0,6.0,82,0.00,,,0.00,weatherlink.com 1.10,2013-03-27 13:39:00,
2013-03-27 09:54:00,34.4,29.0,30.36,NW,311,3.0,6.0,79,0.00,,,0.00,weatherlink.com 1.10,2013-03-27 13:54:00,
2013-03-27 10:09:00,35.6,28.0,30.36,WNW,283,1.0,8.0,75,0.00,,,0.00,weatherlink.com 1.10,2013-03-27 14:09:00,
2013-03-27 10:25:00,36.4,29.0,30.37,WSW,244,5.0,7.0,73,0.00,,,0.00,weatherlink.com 1.10,2013-03-27 14:25:00,
2013-03-27 10:40:00,37.4,28.0,30.37,WNW,290,1.0,6.0,70,0.00,,,0.00,weatherlink.com 1.10,2013-03-27 14:40:00,
2013-03-27 10:55:00,38.0,28.0,30.37,WNW,284,1.0,6.0,67,0.00,,,0.00,weatherlink.com 1.10,2013-03-27 14:55:00,
2013-03-27 11:10:00,38.8,28.0,30.37,WSW,252,6.0,10.0,66,0.00,,,0.00,weatherlink.com 1.10,2013-03-27 15:10:00,
2013-03-27 11:25:00,38.8,26.0,30.37,West,260,0.0,6.0,60,0.00,,,0.00,weatherlink.com 1.10,2013-03-27 15:25:00,
2013-03-27 11:40:00,39.6,25.0,30.37,West,259,4.0,7.0,57,0.01,,,0.01,weatherlink.com 1.10,2013-03-27 15:40:00,
2013-03-27 11:55:00,39.3,25.0,30.37,SSW,209,3.0,6.0,58,0.01,,,0.01,weatherlink.com 1.10,2013-03-27 15:55:00,
2013-03-27 12:10:00,40.5,26.0,30.36,WSW,250,5.0,6.0,57,0.01,,,0.01,weatherlink.com 1.10,2013-03-27 16:10:00,
2013-03-27 12:25:00,40.3,26.0,30.36,SW,234,1.0,5.0,58,0.01,,,0.01,weatherlink.com 1.10,2013-03-27 16:25:00,
2013-03-27 12:40:00,41.6,27.0,30.36,SW,236,6.0,8.0,57,0.00,,,0.01,weatherlink.com 1.10,2013-03-27 16:40:00,
2013-03-27 12:55:00,41.4,25.0,30.36,NW,305,0.0,6.0,53,0.00,,,0.01,weatherlink.com 1.10,2013-03-27 16:55:00,
2013-03-27 13:10:00,41.1,25.0,30.37,WSW,238,6.0,8.0,53,0.00,,,0.01,weatherlink.com 1.10,2013-03-27 17:10:00,
2013-03-27 13:25:00,41.0,25.0,30.37,WNW,296,2.0,7.0,53,0.00,,,0.01,weatherlink.com 1.10,2013-03-27 17:25:00,
2013-03-27 13:40:00,41.1,25.0,30.37,West,263,2.0,6.0,54,0.00,,,0.01,weatherlink.com 1.10,2013-03-27 17:40:00,
2013-03-27 13:55:00,41.7,26.0,30.36,WSW,255,4.0,7.0,53,0.00,,,0.01,weatherlink.com 1.10,2013-03-27 17:55:00,
2013-03-27 14:10:00,42.3,26.0,30.36,West,264,4.0,7.0,52,0.00,,,0.01,weatherlink.com 1.10,2013-03-27 18:10:00,
2013-03-27 14:25:00,42.8,26.0,30.36,SW,236,3.0,7.0,52,0.00,,,0.01,weatherlink.com 1.10,2013-03-27 18:25:00,
2013-03-27 14:40:00,42.0,26.0,30.35,SSW,193,4.0,9.0,53,0.00,,,0.01,weatherlink.com 1.10,2013-03-27 18:40:00,
2013-03-27 14:55:00,43.0,27.0,30.35,SW,219,8.0,8.0,54,0.00,,,0.01,weatherlink.com 1.10,2013-03-27 18:55:00,
2013-03-27 15:10:00,42.4,26.0,30.35,SSW,211,4.0,9.0,52,0.00,,,0.01,weatherlink.com 1.10,2013-03-27 19:10:00,
2013-03-27 15:25:00,42.7,27.0,30.35,WSW,255,8.0,10.0,54,0.00,,,0.01,weatherlink.com 1.10,2013-03-27 19:25:00,
2013-03-27 15:40:00,44.2,27.0,30.34,West,276,7.0,14.0,52,0.00,,,0.01,weatherlink.com 1.10,2013-03-27 19:40:00,
2013-03-27 15:55:00,45.9,28.0,30.34,WSW,242,7.0,12.0,49,0.00,,,0.01,weatherlink.com 1.10,2013-03-27 19:55:00,
2013-03-27 16:10:00,44.0,27.0,30.33,WNW,292,5.0,9.0,52,0.00,,,0.01,weatherlink.com 1.10,2013-03-27 20:10:00,
2013-03-27 16:25:00,45.6,27.0,30.33,SSW,200,2.0,9.0,49,0.00,,,0.01,weatherlink.com 1.10,2013-03-27 20:25:00,
2013-03-27 16:40:00,44.3,27.0,30.32,SW,227,5.0,7.0,50,0.00,,,0.01,weatherlink.com 1.10,2013-03-27 20:40:00,
2013-03-27 16:55:00,43.9,26.0,30.32,SW,214,2.0,9.0,50,0.00,,,0.01,weatherlink.com 1.10,2013-03-27 20:55:00,
2013-03-27 17:10:00,45.1,27.0,30.32,SW,234,7.0,11.0,50,0.00,,,0.01,weatherlink.com 1.10,2013-03-27 21:10:00,
2013-03-27 17:25:00,44.5,26.0,30.32,West,264,7.0,12.0,49,0.00,,,0.01,weatherlink.com 1.10,2013-03-27 21:25:00,
2013-03-27 17:40:00,43.2,26.0,30.32,SW,217,5.0,10.0,51,0.00,,,0.01,weatherlink.com 1.10,2013-03-27 21:40:00,
2013-03-27 17:55:00,43.2,26.0,30.32,West,281,0.0,7.0,51,0.00,,,0.01,weatherlink.com 1.10,2013-03-27 21:55:00,
2013-03-27 18:10:00,43.3,27.0,30.32,SW,221,5.0,6.0,52,0.00,,,0.01,weatherlink.com 1.10,2013-03-27 22:10:00,
2013-03-27 18:25:00,43.2,26.0,30.32,SW,236,1.0,5.0,52,0.00,,,0.01,weatherlink.com 1.10,2013-03-27 22:25:00,
2013-03-27 18:40:00,44.0,26.0,30.32,WNW,293,2.0,7.0,50,0.00,,,0.01,weatherlink.com 1.10,2013-03-27 22:40:00,
2013-03-27 18:55:00,44.0,26.0,30.32,WSW,240,5.0,10.0,49,0.00,,,0.01,weatherlink.com 1.10,2013-03-27 22:55:00,
2013-03-27 19:10:00,42.7,26.0,30.32,WSW,251,3.0,10.0,52,0.00,,,0.01,weatherlink.com 1.10,2013-03-27 23:10:00,
2013-03-27 19:25:00,42.4,26.0,30.32,SW,233,1.0,7.0,52,0.00,,,0.01,weatherlink.com 1.10,2013-03-27 23:25:00,
2013-03-27 19:40:00,42.1,25.0,30.32,WSW,252,7.0,7.0,52,0.00,,,0.01,weatherlink.com 1.10,2013-03-27 23:40:00,
2013-03-27 19:55:00,41.7,26.0,30.32,WSW,250,2.0,5.0,53,0.00,,,0.01,weatherlink.com 1.10,2013-03-27 23:55:00,
2013-03-27 20:10:00,41.3,26.0,30.32,West,262,0.0,6.0,54,0.00,,,0.01,weatherlink.com 1.10,2013-03-28 00:10:00,
2013-03-27 20:25:00,40.5,25.0,30.32,West,259,0.0,1.0,55,0.00,,,0.01,weatherlink.com 1.10,2013-03-28 00:25:00,
2013-03-27 20:40:00,39.5,26.0,30.32,West,259,0.0,0.0,58,0.00,,,0.01,weatherlink.com 1.10,2013-03-28 00:40:00,
2013-03-27 20:55:00,37.8,26.0,30.32,West,260,0.0,0.0,63,0.00,,,0.01,weatherlink.com 1.10,2013-03-28 00:55:00,
2013-03-27 21:10:00,36.1,26.0,30.32,West,260,0.0,0.0,67,0.00,,,0.01,weatherlink.com 1.10,2013-03-28 01:10:00,
2013-03-27 21:25:00,34.4,26.0,30.32,West,260,0.0,0.0,70,0.00,,,0.01,weatherlink.com 1.10,2013-03-28 01:25:00,
2013-03-27 21:40:00,33.2,25.0,30.33,West,260,0.0,0.0,72,0.00,,,0.01,weatherlink.com 1.10,2013-03-28 01:40:00,
2013-03-27 21:55:00,32.0,25.0,30.33,West,260,0.0,0.0,75,0.00,,,0.01,weatherlink.com 1.10,2013-03-28 01:55:00,
2013-03-27 22:10:00,31.0,25.0,30.33,West,260,0.0,0.0,77,0.00,,,0.01,weatherlink.com 1.10,2013-03-28 02:10:00,
2013-03-27 22:25:00,30.2,24.0,30.33,West,260,0.0,0.0,78,0.00,,,0.01,weatherlink.com 1.10,2013-03-28 02:25:00,
2013-03-27 22:40:00,29.6,24.0,30.34,West,259,0.0,0.0,81,0.00,,,0.01,weatherlink.com 1.10,2013-03-28 02:40:00,
2013-03-27 22:55:00,29.1,24.0,30.34,West,259,0.0,0.0,81,0.00,,,0.01,weatherlink.com 1.10,2013-03-28 02:55:00,
2013-03-27 23:10:00,28.6,24.0,30.34,West,259,0.0,0.0,82,0.00,,,0.01,weatherlink.com 1.10,2013-03-28 03:10:00,
2013-03-27 23:25:00,28.1,24.0,30.34,West,260,0.0,0.0,83,0.00,,,0.01,weatherlink.com 1.10,2013-03-28 03:25:00,
2013-03-27 23:40:00,27.8,24.0,30.34,West,260,0.0,0.0,84,0.00,,,0.01,weatherlink.com 1.10,2013-03-28 03:40:00,
2013-03-27 23:55:00,27.6,23.0,30.34,West,259,0.0,0.0,84,0.00,,,0.01,weatherlink.com 1.10,2013-03-28 03:55:00,